Location: Wald
(31.7579°N, 86.6655°W)
Time: 02:43:43
(UTC+00:00)

Cosmos 1408 - Visible Passes

Search period start: 23 October 2020 00:00
Search period end: 02 November 2020 00:00
Orbit: 468 x 495 km, 82.6° (Epoch: 22 October)

Date Brightness Start Highest point End Pass type
(mag) Time Alt. Az. Time Alt. Az. Time Alt. Az.
27 Oct 4.4 23:53:57 10° NE 23:54:59 14° NE 23:54:59 14° NE visible
28 Oct 5.6 01:28:44 10° NW 01:29:25 13° NW 01:29:25 13° NW visible
28 Oct 4.6 23:30:24 10° ENE 23:30:43 10° ENE 23:31:04 10° E visible
29 Oct 4.3 01:02:30 10° NNW 01:05:48 32° W 01:09:06 10° SSW visible
30 Oct 3.0 00:36:37 10° NNW 00:40:14 60° W 00:43:52 10° S visible
31 Oct 2.4 00:10:58 10° N 00:14:37 71° E 00:18:17 10° SSE visible
31 Oct 3.1 23:45:33 10° NNE 23:48:59 37° E 23:52:25 10° SSE visible
01 Nov 3.8 23:20:24 10° NNE 23:23:17 21° ENE 23:26:09 10° SE visible
